QPF
0.10 0.06 0.06 0.09 0.19 0.19 0.12 0.10 0.09 0.08 0.07 0.06 0.06 0.06 0.08 0.08 0.06 0.05 0.05 0.06 0.09 0.08 0.10 0.10 0.10 0.10 0.11 0.10 0.09 0.09 0.08 0.08 0.08 0.09 0.08 0.07 0.05 0.04 0.03 0.03 0.03 0.03 0.03
0.06 0.05 0.06 0.07 0.09 0.10 0.09 0.08 0.06 0.06 0.05 0.04 0.05 0.05 0.07 0.07 0.07 0.08 0.08 0.07 0.06 0.07 0.09 0.09 0.09 0.08 0.09 0.09 0.10 0.10 0.09 0.08 0.08 0.09 0.08 0.06 0.05 0.04 0.02 0.03 0.03 0.02 0.03
0.05 0.05 0.07 0.07 0.08 0.06 0.06 0.07 0.05 0.05 0.05 0.05 0.05 0.05 0.05 0.05 0.07 0.07 0.07 0.07 0.07 0.07 0.08 0.08 0.08 0.08 0.08 0.07 0.08 0.08 0.08 0.07 0.07 0.07 0.08 0.07 0.05 0.03 0.02 0.02 0.02 0.02 0.02
0.05 0.08 0.07 0.07 0.07 0.06 0.05 0.07 0.06 0.05 0.05 0.05 0.05 0.05 0.05 0.05 0.06 0.06 0.06 0.07 0.08 0.07 0.05 0.07 0.07 0.08 0.06 0.06 0.06 0.06 0.06 0.06 0.06 0.07 0.07 0.07 0.06 0.04 0.03 0.02 0.02 0.02 0.02
0.04 0.06 0.07 0.06 0.06 0.07 0.06 0.07 0.07 0.05 0.07 0.07 0.07 0.07 0.07 0.06 0.07 0.07 0.07 0.06 0.06 0.07 0.05 0.05 0.05 0.07 0.07 0.06 0.06 0.07 0.06 0.05 0.05 0.05 0.05 0.06 0.06 0.04 0.04 0.03 0.03 0.03 0.03
0.04 0.06 0.09 0.06 0.07 0.06 0.06 0.07 0.08 0.07 0.07 0.07 0.07 0.07 0.07 0.07 0.07 0.07 0.06 0.05 0.05 0.05 0.05 0.04 0.04 0.04 0.05 0.05 0.06 0.07 0.07 0.06 0.05 0.04 0.04 0.05 0.04 0.04 0.04 0.03 0.03 0.03 0.02
0.04 0.05 0.08 0.05 0.04 0.04 0.04 0.04 0.06 0.06 0.07 0.06 0.06 0.06 0.07 0.08 0.08 0.08 0.08 0.07 0.06 0.05 0.06 0.06 0.06 0.05 0.05 0.05 0.05 0.05 0.05 0.06 0.05 0.05 0.05 0.05 0.04 0.04 0.04 0.04 0.03 0.03 0.02
0.03 0.05 0.05 0.05 0.04 0.03 0.03 0.03 0.04 0.05 0.06 0.05 0.05 0.05 0.07 0.08 0.08 0.08 0.08 0.09 0.08 0.07 0.07 0.08 0.09 0.08 0.07 0.05 0.05 0.05 0.04 0.05 0.06 0.05 0.06 0.06 0.06 0.05 0.04 0.04 0.04 0.03 0.03
0.02 0.04 0.04 0.04 0.04 0.03 0.04 0.05 0.06 0.06 0.06 0.05 0.04 0.05 0.07 0.07 0.07 0.08 0.08 0.08 0.07 0.07 0.08 0.08 0.10 0.11 0.10 0.07 0.06 0.05 0.04 0.05 0.06 0.06 0.06 0.07 0.07 0.06 0.05 0.04 0.04 0.04 0.03
0.01 0.02 0.04 0.04 0.04 0.04 0.05 0.06 0.06 0.06 0.06 0.05 0.05 0.05 0.08 0.07 0.06 0.07 0.06 0.06 0.05 0.05 0.05 0.07 0.06 0.07 0.10 0.09 0.07 0.05 0.05 0.05 0.06 0.06 0.06 0.06 0.06 0.07 0.07 0.05 0.05 0.05 0.05
0.01 0.02 0.03 0.05 0.05 0.05 0.05 0.06 0.06 0.05 0.05 0.05 0.06 0.07 0.09 0.09 0.10 0.09 0.06 0.06 0.05 0.04 0.04 0.05 0.05 0.05 0.05 0.06 0.05 0.04 0.04 0.05 0.05 0.05 0.05 0.05 0.06 0.08 0.08 0.07 0.07 0.06 0.06
0.02 0.06 0.06 0.05 0.04 0.04 0.04 0.04 0.05 0.04 0.04 0.05 0.08 0.09 0.11 0.13 0.14 0.10 0.08 0.06 0.04 0.05 0.05 0.03 0.04 0.05 0.06 0.06 0.05 0.05 0.04 0.04 0.05 0.05 0.05 0.05 0.06 0.08 0.09 0.07 0.06 0.06 0.07
0.03 0.07 0.08 0.04 0.04 0.04 0.02 0.03 0.05 0.05 0.03 0.04 0.08 0.11 0.12 0.12 0.12 0.09 0.08 0.06 0.05 0.06 0.06 0.06 0.05 0.05 0.05 0.05 0.04 0.04 0.04 0.05 0.05 0.06 0.07 0.07 0.07 0.08 0.08 0.07 0.06 0.06 0.06
0.04 0.05 0.07 0.07 0.06 0.05 0.03 0.02 0.02 0.03 0.04 0.06 0.09 0.12 0.11 0.09 0.09 0.08 0.09 0.07 0.06 0.06 0.05 0.04 0.04 0.04 0.05 0.06 0.06 0.07 0.07 0.07 0.08 0.07 0.06 0.05 0.05 0.05 0.04 0.04 0.05 0.05 0.05
0.02 0.02 0.04 0.07 0.07 0.06 0.04 0.03 0.02 0.04 0.06 0.07 0.08 0.09 0.10 0.09 0.07 0.08 0.08 0.06 0.05 0.04 0.04 0.03 0.03 0.03 0.03 0.04 0.04 0.05 0.05 0.05 0.04 0.03 0.03 0.03 0.02 0.02 0.02 0.02 0.02 0.03 0.04
0.02 0.02 0.03 0.06 0.07 0.06 0.04 0.04 0.04 0.03 0.04 0.06 0.07 0.07 0.08 0.06 0.06 0.07 0.06 0.05 0.04 0.05 0.05 0.04 0.02 0.02 0.02 0.04 0.05 0.04 0.03 0.03 0.02 0.03 0.03 0.03 0.02 0.01 0.01 0.01 0.01 0.01 0.02
0.02 0.03 0.04 0.05 0.05 0.05 0.06 0.05 0.05 0.04 0.05 0.06 0.05 0.06 0.06 0.06 0.06 0.04 0.04 0.04 0.04 0.04 0.05 0.04 0.03 0.02 0.03 0.04 0.03 0.03 0.02 0.02 0.03 0.04 0.04 0.03 0.01 0.01 0.01 0.01 0.01 0.00 0.01
0.03 0.04 0.05 0.05 0.05 0.05 0.06 0.05 0.04 0.04 0.04 0.04 0.03 0.04 0.06 0.05 0.04 0.04 0.03 0.04 0.05 0.05 0.05 0.04 0.04 0.05 0.04 0.02 0.01 0.02 0.02 0.03 0.03 0.03 0.03 0.02 0.01 0.01 0.01 0.01 0.01 0.01 0.02
0.04 0.05 0.05 0.05 0.05 0.04 0.04 0.04 0.03 0.04 0.04 0.03 0.02 0.03 0.04 0.04 0.03 0.04 0.06 0.05 0.05 0.06 0.06 0.05 0.05 0.06 0.05 0.03 0.02 0.02 0.03 0.04 0.03 0.02 0.02 0.01 0.01 0.01 0.01 0.01 0.01 0.02 0.02
0.05 0.06 0.05 0.04 0.04 0.04 0.04 0.04 0.03 0.04 0.05 0.04 0.03 0.03 0.03 0.04 0.06 0.06 0.06 0.06 0.05 0.05 0.05 0.05 0.06 0.06 0.05 0.04 0.03 0.02 0.02 0.03 0.02 0.01 0.01 0.01 0.01 0.01 0.01 0.02 0.02 0.02 0.02
0.04 0.06 0.05 0.04 0.05 0.04 0.04 0.05 0.04 0.05 0.05 0.04 0.04 0.04 0.05 0.06 0.07 0.05 0.05 0.05 0.04 0.05 0.04 0.04 0.05 0.05 0.04 0.03 0.03 0.02 0.02 0.02 0.01 0.01 0.02 0.02 0.01 0.01 0.01 0.02 0.02 0.02 0.02
0.03 0.04 0.05 0.04 0.05 0.04 0.03 0.04 0.05 0.04 0.03 0.03 0.03 0.04 0.05 0.05 0.03 0.04 0.04 0.04 0.04 0.04 0.06 0.06 0.05 0.05 0.04 0.03 0.03 0.03 0.03 0.02 0.02 0.02 0.02 0.02 0.01 0.01 0.01 0.02 0.02 0.02 0.02
0.04 0.04 0.05 0.05 0.05 0.05 0.04 0.04 0.07 0.06 0.04 0.04 0.04 0.05 0.04 0.04 0.04 0.04 0.05 0.05 0.05 0.05 0.05 0.04 0.03 0.03 0.03 0.03 0.04 0.04 0.03 0.02 0.03 0.02 0.01 0.01 0.01 0.01 0.02 0.02 0.02 0.02 0.02
0.03 0.03 0.04 0.04 0.03 0.03 0.04 0.05 0.06 0.07 0.07 0.07 0.07 0.07 0.06 0.04 0.04 0.04 0.04 0.04 0.03 0.03 0.02 0.02 0.02 0.02 0.02 0.03 0.04 0.05 0.05 0.04 0.03 0.02 0.02 0.01 0.02 0.02 0.02 0.02 0.02 0.01 0.02
0.02 0.03 0.04 0.04 0.02 0.02 0.02 0.03 0.05 0.05 0.05 0.06 0.06 0.05 0.05 0.05 0.04 0.03 0.03 0.02 0.02 0.01 0.02 0.02 0.02 0.02 0.02 0.03 0.04 0.05 0.05 0.05 0.04 0.02 0.03 0.03 0.03 0.03 0.03 0.03 0.03 0.02 0.02
0.03 0.03 0.04 0.03 0.02 0.02 0.02 0.03 0.02 0.03 0.03 0.02 0.02 0.02 0.02 0.03 0.03 0.02 0.01 0.01 0.01 0.00 0.01 0.01 0.01 0.01 0.01 0.02 0.03 0.03 0.03 0.04 0.04 0.03 0.03 0.03 0.03 0.03 0.03 0.03 0.03 0.03 0.03
MSLP
1013.50 1013.54 1013.58 1013.57 1013.43 1013.16 1012.75 1012.22 1011.65 1011.10 1010.61 1010.25 1010.00 1009.88 1009.85 1009.86 1009.88 1009.89 1009.86 1009.80 1009.74 1009.69 1009.67 1009.71 1009.79 1009.92 1010.06 1010.20 1010.32 1010.40 1010.43 1010.41 1010.34 1010.22 1010.05 1009.83 1009.56 1009.23 1008.85 1008.44 1008.00 1007.58 1007.19
1014.26 1014.20 1014.15 1014.04 1013.85 1013.55 1013.15 1012.67 1012.17 1011.70 1011.31 1011.02 1010.84 1010.74 1010.70 1010.68 1010.65 1010.59 1010.50 1010.38 1010.28 1010.20 1010.18 1010.21 1010.30 1010.43 1010.56 1010.69 1010.77 1010.82 1010.81 1010.74 1010.64 1010.48 1010.29 1010.04 1009.74 1009.37 1008.94 1008.46 1007.95 1007.43 1006.95
1015.08 1014.90 1014.72 1014.50 1014.22 1013.87 1013.45 1013.00 1012.56 1012.16 1011.85 1011.63 1011.50 1011.44 1011.41 1011.37 1011.30 1011.20 1011.07 1010.92 1010.79 1010.70 1010.67 1010.70 1010.78 1010.89 1011.00 1011.09 1011.14 1011.14 1011.09 1011.00 1010.87 1010.70 1010.51 1010.27 1009.97 1009.61 1009.18 1008.67 1008.12 1007.54 1006.98
1015.83 1015.54 1015.24 1014.92 1014.55 1014.14 1013.70 1013.26 1012.85 1012.50 1012.25 1012.09 1012.00 1011.96 1011.93 1011.89 1011.81 1011.69 1011.54 1011.38 1011.24 1011.14 1011.10 1011.12 1011.19 1011.27 1011.34 1011.39 1011.39 1011.34 1011.25 1011.14 1011.00 1010.85 1010.67 1010.47 1010.21 1009.89 1009.49 1009.00 1008.44 1007.84 1007.22
1016.43 1016.05 1015.67 1015.27 1014.85 1014.39 1013.93 1013.49 1013.10 1012.79 1012.56 1012.43 1012.36 1012.33 1012.31 1012.27 1012.18 1012.05 1011.90 1011.74 1011.60 1011.50 1011.45 1011.45 1011.49 1011.53 1011.56 1011.55 1011.51 1011.42 1011.30 1011.16 1011.02 1010.89 1010.75 1010.59 1010.39 1010.13 1009.78 1009.33 1008.80 1008.20 1007.57
1016.82 1016.41 1016.00 1015.57 1015.12 1014.66 1014.19 1013.75 1013.37 1013.06 1012.84 1012.71 1012.63 1012.60 1012.57 1012.52 1012.43 1012.30 1012.15 1012.00 1011.86 1011.76 1011.70 1011.68 1011.67 1011.68 1011.66 1011.60 1011.51 1011.38 1011.23 1011.08 1010.94 1010.81 1010.70 1010.58 1010.44 1010.23 1009.94 1009.56 1009.07 1008.50 1007.88
1017.00 1016.61 1016.21 1015.81 1015.38 1014.94 1014.49 1014.06 1013.68 1013.36 1013.12 1012.96 1012.86 1012.79 1012.74 1012.68 1012.58 1012.46 1012.32 1012.17 1012.03 1011.92 1011.85 1011.80 1011.76 1011.72 1011.65 1011.55 1011.42 1011.25 1011.08 1010.91 1010.75 1010.63 1010.52 1010.43 1010.31 1010.15 1009.91 1009.57 1009.14 1008.62 1008.02
1017.02 1016.68 1016.35 1016.01 1015.64 1015.25 1014.83 1014.42 1014.03 1013.69 1013.41 1013.21 1013.06 1012.95 1012.87 1012.78 1012.68 1012.55 1012.41 1012.27 1012.13 1012.01 1011.91 1011.83 1011.76 1011.68 1011.58 1011.44 1011.28 1011.09 1010.88 1010.69 1010.51 1010.36 1010.24 1010.13 1010.01 1009.86 1009.65 1009.36 1008.97 1008.50 1007.95
1016.96 1016.69 1016.44 1016.19 1015.90 1015.57 1015.19 1014.80 1014.40 1014.03 1013.71 1013.45 1013.24 1013.09 1012.96 1012.85 1012.73 1012.61 1012.47 1012.32 1012.18 1012.05 1011.93 1011.82 1011.72 1011.61 1011.48 1011.32 1011.13 1010.92 1010.70 1010.48 1010.27 1010.08 1009.91 1009.76 1009.61 1009.44 1009.22 1008.95 1008.60 1008.17 1007.66
1016.89 1016.70 1016.54 1016.37 1016.15 1015.88 1015.55 1015.17 1014.76 1014.35 1013.98 1013.67 1013.41 1013.21 1013.05 1012.91 1012.79 1012.66 1012.52 1012.37 1012.22 1012.08 1011.94 1011.80 1011.67 1011.54 1011.39 1011.22 1011.03 1010.81 1010.57 1010.32 1010.08 1009.83 1009.61 1009.39 1009.18 1008.97 1008.72 1008.45 1008.11 1007.71 1007.24
1016.88 1016.75 1016.66 1016.55 1016.40 1016.17 1015.87 1015.49 1015.06 1014.63 1014.22 1013.86 1013.56 1013.32 1013.14 1013.00 1012.88 1012.75 1012.62 1012.47 1012.31 1012.14 1011.98 1011.82 1011.67 1011.52 1011.36 1011.19 1011.00 1010.78 1010.53 1010.26 1009.98 1009.69 1009.40 1009.11 1008.84 1008.56 1008.28 1007.98 1007.64 1007.26 1006.82
1016.94 1016.86 1016.81 1016.75 1016.63 1016.42 1016.12 1015.74 1015.30 1014.84 1014.40 1014.01 1013.70 1013.45 1013.27 1013.14 1013.02 1012.91 1012.78 1012.63 1012.46 1012.27 1012.08 1011.90 1011.72 1011.56 1011.39 1011.22 1011.04 1010.83 1010.58 1010.30 1009.99 1009.66 1009.32 1008.97 1008.63 1008.30 1007.98 1007.66 1007.31 1006.94 1006.51
1017.08 1017.02 1016.98 1016.93 1016.81 1016.61 1016.30 1015.91 1015.45 1014.98 1014.54 1014.15 1013.84 1013.60 1013.44 1013.33 1013.24 1013.14 1013.03 1012.87 1012.69 1012.48 1012.26 1012.04 1011.84 1011.65 1011.48 1011.31 1011.13 1010.93 1010.69 1010.41 1010.09 1009.73 1009.36 1008.97 1008.59 1008.22 1007.87 1007.52 1007.17 1006.80 1006.38
1017.25 1017.19 1017.15 1017.09 1016.95 1016.73 1016.41 1016.00 1015.54 1015.07 1014.64 1014.27 1013.99 1013.79 1013.67 1013.59 1013.53 1013.45 1013.34 1013.18 1012.98 1012.74 1012.48 1012.23 1011.99 1011.77 1011.58 1011.40 1011.22 1011.03 1010.80 1010.52 1010.20 1009.85 1009.46 1009.06 1008.66 1008.28 1007.91 1007.56 1007.21 1006.83 1006.41
1017.40 1017.34 1017.29 1017.20 1017.04 1016.79 1016.45 1016.03 1015.58 1015.13 1014.72 1014.39 1014.15 1014.00 1013.92 1013.88 1013.85 1013.79 1013.68 1013.51 1013.28 1013.01 1012.71 1012.41 1012.13 1011.88 1011.66 1011.46 1011.27 1011.08 1010.85 1010.59 1010.29 1009.94 1009.56 1009.17 1008.78 1008.40 1008.04 1007.70 1007.34 1006.97 1006.56
1017.52 1017.45 1017.38 1017.26 1017.07 1016.80 1016.44 1016.02 1015.59 1015.17 1014.80 1014.52 1014.33 1014.23 1014.19 1014.18 1014.16 1014.11 1013.99 1013.80 1013.54 1013.23 1012.89 1012.54 1012.22 1011.93 1011.68 1011.46 1011.25 1011.05 1010.83 1010.58 1010.28 1009.96 1009.60 1009.23 1008.87 1008.51 1008.17 1007.83 1007.49 1007.13 1006.72
1017.57 1017.51 1017.42 1017.28 1017.06 1016.77 1016.40 1016.00 1015.58 1015.20 1014.88 1014.65 1014.50 1014.43 1014.42 1014.42 1014.41 1014.34 1014.20 1013.98 1013.69 1013.34 1012.96 1012.58 1012.22 1011.90 1011.62 1011.38 1011.16 1010.95 1010.72 1010.47 1010.19 1009.88 1009.55 1009.20 1008.86 1008.53 1008.21 1007.89 1007.56 1007.20 1006.80
1017.58 1017.52 1017.42 1017.26 1017.02 1016.72 1016.36 1015.97 1015.59 1015.24 1014.96 1014.76 1014.65 1014.60 1014.59 1014.58 1014.55 1014.45 1014.28 1014.03 1013.70 1013.32 1012.91 1012.51 1012.14 1011.80 1011.50 1011.25 1011.02 1010.80 1010.57 1010.32 1010.04 1009.74 1009.41 1009.09 1008.76 1008.44 1008.14 1007.83 1007.50 1007.15 1006.75
1017.56 1017.50 1017.39 1017.22 1016.98 1016.67 1016.32 1015.96 1015.60 1015.29 1015.04 1014.86 1014.76 1014.70 1014.67 1014.63 1014.56 1014.42 1014.20 1013.92 1013.56 1013.17 1012.76 1012.37 1012.00 1011.67 1011.38 1011.13 1010.91 1010.68 1010.44 1010.18 1009.90 1009.59 1009.26 1008.93 1008.60 1008.28 1007.97 1007.66 1007.33 1006.97 1006.56
1017.52 1017.47 1017.36 1017.18 1016.94 1016.64 1016.30 1015.96 1015.63 1015.35 1015.12 1014.95 1014.83 1014.75 1014.68 1014.59 1014.46 1014.27 1014.01 1013.69 1013.33 1012.94 1012.55 1012.19 1011.86 1011.57 1011.31 1011.09 1010.87 1010.65 1010.40 1010.13 1009.82 1009.49 1009.14 1008.78 1008.43 1008.09 1007.76 1007.42 1007.08 1006.70 1006.29
1017.48 1017.43 1017.32 1017.14 1016.90 1016.61 1016.30 1015.98 1015.68 1015.42 1015.20 1015.03 1014.89 1014.77 1014.64 1014.49 1014.29 1014.04 1013.75 1013.41 1013.05 1012.69 1012.34 1012.03 1011.76 1011.53 1011.33 1011.14 1010.95 1010.74 1010.49 1010.19 1009.86 1009.49 1009.10 1008.70 1008.31 1007.93 1007.56 1007.19 1006.82 1006.42 1005.99
1017.42 1017.37 1017.26 1017.09 1016.86 1016.59 1016.30 1016.01 1015.74 1015.50 1015.28 1015.10 1014.93 1014.77 1014.58 1014.37 1014.11 1013.81 1013.49 1013.14 1012.79 1012.47 1012.18 1011.94 1011.74 1011.59 1011.45 1011.30 1011.14 1010.93 1010.67 1010.35 1009.98 1009.57 1009.13 1008.68 1008.24 1007.81 1007.40 1006.99 1006.59 1006.17 1005.73
1017.32 1017.28 1017.17 1017.01 1016.80 1016.56 1016.30 1016.04 1015.80 1015.57 1015.37 1015.18 1014.98 1014.77 1014.54 1014.27 1013.96 1013.62 1013.27 1012.93 1012.61 1012.33 1012.10 1011.93 1011.80 1011.71 1011.63 1011.52 1011.38 1011.18 1010.90 1010.55 1010.14 1009.67 1009.18 1008.69 1008.20 1007.73 1007.28 1006.84 1006.42 1005.99 1005.54
1017.16 1017.12 1017.02 1016.88 1016.69 1016.48 1016.26 1016.04 1015.83 1015.63 1015.44 1015.24 1015.03 1014.79 1014.51 1014.20 1013.86 1013.50 1013.13 1012.80 1012.50 1012.26 1012.08 1011.97 1011.90 1011.86 1011.81 1011.73 1011.59 1011.37 1011.07 1010.68 1010.23 1009.72 1009.19 1008.66 1008.14 1007.64 1007.17 1006.73 1006.30 1005.87 1005.43
1016.90 1016.87 1016.79 1016.67 1016.51 1016.34 1016.15 1015.97 1015.80 1015.63 1015.46 1015.26 1015.05 1014.79 1014.49 1014.15 1013.79 1013.41 1013.05 1012.72 1012.45 1012.24 1012.10 1012.01 1011.97 1011.95 1011.91 1011.82 1011.67 1011.42 1011.09 1010.67 1010.18 1009.64 1009.09 1008.53 1008.00 1007.51 1007.05 1006.62 1006.22 1005.81 1005.40
1016.57 1016.54 1016.48 1016.37 1016.25 1016.11 1015.97 1015.83 1015.69 1015.55 1015.39 1015.21 1015.00 1014.73 1014.43 1014.08 1013.71 1013.33 1012.97 1012.65 1012.39 1012.20 1012.07 1012.00 1011.96 1011.92 1011.86 1011.74 1011.55 1011.27 1010.90 1010.44 1009.93 1009.39 1008.83 1008.29 1007.78 1007.32 1006.91 1006.52 1006.16 1005.81 1005.44
Thickness
5743 5743 5743 5743 5740 5737 5734 5732 5729 5727 5726 5723 5720 5718 5717 5717 5717 5717 5717 5716 5714 5712 5711 5710 5708 5707 5705 5703 5703 5701 5701 5700 5701 5699 5697 5700 5703 5703 5702 5701 5700 5699 5698
5736 5736 5736 5735 5733 5730 5728 5727 5724 5723 5721 5719 5717 5715 5713 5712 5712 5712 5711 5711 5709 5708 5707 5705 5703 5702 5701 5700 5699 5698 5696 5697 5698 5693 5689 5687 5690 5694 5699 5697 5696 5695 5694
5728 5728 5728 5728 5727 5725 5723 5723 5720 5718 5717 5716 5714 5711 5709 5707 5706 5705 5704 5705 5705 5703 5702 5701 5700 5699 5697 5695 5695 5695 5692 5690 5692 5692 5686 5680 5678 5683 5689 5691 5691 5690 5689
5727 5724 5722 5721 5721 5721 5721 5719 5716 5714 5713 5712 5709 5705 5702 5699 5700 5700 5699 5700 5700 5699 5698 5697 5696 5695 5693 5692 5692 5692 5690 5688 5685 5686 5687 5684 5682 5676 5676 5681 5685 5685 5684
5725 5721 5718 5718 5718 5718 5716 5714 5712 5710 5708 5706 5704 5701 5698 5697 5697 5697 5695 5695 5695 5695 5694 5693 5692 5691 5690 5689 5688 5688 5687 5685 5683 5681 5681 5680 5679 5678 5671 5669 5673 5676 5678
5722 5719 5717 5716 5714 5713 5712 5710 5707 5704 5702 5700 5698 5696 5694 5693 5692 5691 5690 5690 5690 5690 5690 5690 5689 5687 5687 5685 5684 5684 5683 5681 5680 5678 5677 5675 5672 5670 5669 5665 5665 5666 5670
5718 5715 5712 5711 5709 5708 5707 5705 5701 5698 5697 5696 5694 5693 5691 5689 5687 5687 5686 5686 5685 5685 5685 5686 5684 5684 5683 5682 5681 5679 5678 5678 5676 5674 5673 5672 5670 5669 5666 5662 5660 5660 5663
5714 5711 5709 5708 5706 5704 5702 5700 5697 5694 5694 5692 5690 5689 5688 5686 5685 5684 5683 5683 5682 5682 5683 5682 5681 5681 5680 5679 5677 5676 5675 5674 5672 5671 5669 5667 5666 5666 5663 5659 5655 5651 5652
5709 5708 5706 5705 5703 5701 5698 5696 5694 5692 5691 5690 5688 5686 5684 5682 5681 5681 5680 5680 5680 5680 5679 5679 5678 5677 5676 5675 5673 5672 5671 5669 5668 5667 5665 5663 5662 5661 5659 5657 5653 5646 5641
5706 5704 5702 5700 5699 5697 5696 5694 5692 5691 5689 5688 5686 5684 5681 5679 5678 5677 5677 5676 5676 5676 5675 5675 5674 5673 5673 5672 5670 5669 5668 5665 5664 5663 5660 5658 5657 5655 5653 5651 5648 5645 5639
5703 5701 5699 5698 5697 5695 5694 5692 5690 5688 5687 5685 5684 5681 5679 5678 5677 5675 5675 5674 5674 5673 5673 5672 5672 5670 5670 5669 5667 5665 5664 5662 5660 5658 5656 5654 5652 5650 5647 5644 5641 5638 5634
5701 5699 5696 5695 5694 5692 5691 5690 5688 5686 5685 5684 5682 5680 5678 5676 5674 5673 5673 5673 5672 5671 5671 5670 5669 5668 5667 5665 5664 5662 5661 5658 5655 5653 5651 5649 5648 5644 5641 5637 5634 5631 5628
5699 5697 5694 5692 5690 5689 5688 5687 5685 5684 5684 5683 5680 5678 5676 5674 5672 5672 5672 5670 5670 5669 5668 5667 5666 5665 5664 5662 5660 5658 5656 5653 5651 5649 5646 5644 5642 5638 5635 5631 5628 5624 5622
5695 5693 5690 5688 5687 5686 5684 5683 5683 5683 5682 5680 5678 5675 5674 5672 5670 5670 5669 5668 5668 5666 5665 5664 5663 5662 5660 5658 5656 5654 5651 5649 5647 5645 5643 5640 5636 5632 5629 5626 5622 5618 5614
5692 5690 5688 5686 5684 5682 5681 5681 5680 5680 5679 5677 5676 5674 5673 5672 5670 5668 5667 5667 5666 5665 5664 5662 5661 5660 5657 5654 5651 5649 5648 5644 5642 5641 5639 5636 5633 5629 5624 5621 5616 5612 5608
5690 5688 5686 5684 5681 5679 5679 5678 5677 5677 5676 5675 5674 5673 5672 5670 5668 5666 5665 5664 5664 5663 5661 5660 5658 5656 5654 5650 5647 5644 5643 5641 5639 5636 5634 5632 5629 5625 5620 5616 5612 5607 5603
5688 5686 5683 5681 5679 5678 5676 5675 5675 5675 5674 5672 5672 5672 5671 5669 5667 5666 5664 5662 5661 5660 5658 5657 5655 5652 5649 5646 5643 5640 5638 5637 5635 5633 5630 5628 5626 5621 5617 5613 5609 5605 5601
5686 5684 5681 5679 5679 5678 5676 5675 5675 5674 5672 5671 5671 5671 5670 5668 5666 5665 5662 5661 5659 5657 5656 5654 5652 5650 5646 5643 5640 5637 5635 5634 5632 5630 5627 5624 5620 5617 5612 5609 5605 5601 5598
5685 5683 5682 5680 5679 5677 5676 5674 5673 5673 5671 5671 5670 5670 5669 5667 5665 5663 5661 5660 5658 5656 5654 5653 5651 5648 5643 5640 5637 5634 5633 5632 5630 5628 5625 5621 5616 5611 5607 5604 5601 5598 5595
5686 5683 5682 5680 5678 5676 5675 5672 5671 5670 5670 5670 5670 5670 5669 5666 5664 5662 5660 5659 5657 5655 5654 5652 5650 5647 5643 5638 5634 5631 5631 5629 5628 5625 5620 5616 5612 5607 5603 5599 5596 5593 5591
5685 5683 5681 5678 5676 5676 5674 5670 5669 5669 5670 5671 5670 5669 5667 5666 5664 5661 5660 5658 5656 5655 5652 5650 5648 5646 5641 5635 5631 5628 5626 5625 5623 5621 5618 5613 5609 5605 5601 5596 5593 5590 5587
5684 5682 5679 5677 5676 5675 5673 5670 5668 5670 5671 5670 5668 5667 5666 5665 5664 5661 5659 5657 5655 5652 5650 5648 5645 5643 5639 5634 5630 5626 5622 5620 5618 5616 5614 5610 5606 5602 5598 5594 5591 5588 5584
5682 5681 5678 5676 5675 5675 5673 5670 5669 5670 5670 5668 5666 5665 5665 5664 5662 5660 5658 5655 5653 5650 5648 5646 5642 5639 5636 5631 5627 5623 5620 5617 5613 5612 5609 5605 5602 5599 5596 5593 5588 5585 5582
5680 5679 5677 5675 5673 5673 5673 5671 5671 5670 5669 5666 5665 5664 5663 5662 5660 5659 5657 5654 5651 5648 5646 5643 5639 5636 5633 5628 5624 5621 5618 5614 5611 5607 5605 5602 5599 5596 5593 5590 5587 5583 5580
5679 5677 5675 5673 5673 5673 5672 5672 5671 5669 5666 5664 5663 5663 5662 5660 5658 5655 5653 5651 5648 5646 5642 5640 5637 5633 5628 5623 5619 5616 5614 5610 5606 5603 5602 5601 5599 5595 5591 5588 5585 5581 5577
5677 5676 5674 5673 5673 5673 5672 5672 5671 5669 5665 5663 5662 5662 5661 5659 5658 5655 5651 5648 5646 5643 5640 5636 5632 5629 5625 5621 5617 5614 5610 5607 5603 5601 5601 5599 5597 5593 5590 5586 5582 5578 5574